This is the latest recevied weather packets stored in our database for station/object KE8WMS. If no packets are shown the sender has not sent any weather packets the latest 10 day(s).
| Time | Temp. | Humidity | Pressure | Rain* | Wind** | Luminosity | Snow |
|---|---|---|---|---|---|---|---|
| 1777488195 | 8.89° C | 99% | 1006.3 hPa | 0 mm | - | 88 W/m² | - |
| 1777487892 | 9.44° C | 99% | 1006.1 hPa | 0 mm | - | 71 W/m² | - |
| 1777487590 | 8.89° C | 99% | 1006 hPa | 0 mm | - | 82 W/m² | - |
| 1777487287 | 8.89° C | 99% | 1006 hPa | 0 mm | - | 64 W/m² | - |
| 1777486984 | 8.89° C | 99% | 1006.2 hPa | 0 mm | - | 70 W/m² | - |
| 1777486680 | 8.89° C | 99% | 1006 hPa | 0 mm | - | 87 W/m² | - |
| 1777486378 | 8.89° C | 99% | 1006.1 hPa | 0 mm | - | 101 W/m² | - |
| 1777486075 | 8.89° C | 99% | 1006 hPa | 0 mm | - | 85 W/m² | - |
| 1777485771 | 8.89° C | 99% | 1006.4 hPa | 0 mm | - | 75 W/m² | - |
| 1777485467 | 9.44° C | 99% | 1006.3 hPa | 0 mm | - | 87 W/m² | - |
| 1777485163 | 9.44° C | 99% | 1006 hPa | 0 mm | - | 104 W/m² | - |
| 1777484860 | 9.44° C | 99% | 1006 hPa | 0 mm | - | 104 W/m² | - |
| 1777484557 | 9.44° C | 99% | 1006 hPa | 0 mm | - | 108 W/m² | - |
| 1777484254 | 9.44° C | 99% | 1005.9 hPa | 0 mm | - | 117 W/m² | - |
| 1777483950 | 9.44° C | 99% | 1006 hPa | 0 mm | - | 112 W/m² | - |
| 1777483647 | 9.44° C | 99% | 1005.8 hPa | 0 mm | - | 143 W/m² | - |
| 1777483342 | 9.44° C | 99% | 1006 hPa | 0 mm | - | 150 W/m² | - |
| 1777483037 | 9.44° C | 99% | 1006 hPa | 0 mm | - | 204 W/m² | - |
| 1777482734 | 10° C | 99% | 1006 hPa | 0 mm | - | 170 W/m² | - |
| 1777482430 | 9.44° C | 99% | 1006 hPa | 0 mm | - | 240 W/m² | - |
| 1777482128 | 9.44° C | 99% | 1006 hPa | 0 mm | - | 135 W/m² | - |
| 1777481826 | 9.44° C | 99% | 1006.2 hPa | 0 mm | - | 186 W/m² | - |
| 1777481523 | 9.44° C | 99% | 1006.1 hPa | 0 mm | - | 132 W/m² | - |
| 1777481219 | 9.44° C | 99% | 1006 hPa | 0 mm | - | 103 W/m² | - |
| 1777480916 | 10° C | 99% | 1006.2 hPa | 0 mm | - | 119 W/m² | - |
* Rain latest hour (hover to see other rain measurements)
** Current wind speed in m/s (hover to see current wind gust speed)